Miscellaneous Local Product
Issued by NWS North Platte, NE

Home | Current Version | Previous Version | Graphics & Text | Print | Product List | Glossary On
Versions: 1 2 3 4 5 6 7 8 9 10 11 12 13 14 15 16 17 18 19 20 21 22 23 24 25 26 27 28 29 30 31 32 33 34 35 36 37 38 39 40 41 42 43 44 45 46 47 48 49 50
550
AXUS43 KLBF 220110
MISLBF


WESTERN AND NORTH CENTRAL NEBRASKA HOURLY WEATHER ROUNDUP
NATIONAL WEATHER SERVICE NORTH PLATTE NE
800 PM CDT SAT OCT 21 2017

NOTE: "FAIR" INDICATES FEW OR NO CLOUDS BELOW 12,000 FEET WITH NO
SIGNIFICANT WEATHER AND/OR OBSTRUCTIONS TO VISIBILITY.

NOTE: STATIONS NOT REPORTING VARIABLES SUCH AS SKY/WEATHER OR
PRESSURE ARE PROVIDED BY RAWS AND APRS NETWORKS AND ARE NOT UNDER
NATIONAL WEATHER SERVICE QUALITY CONTROL.

...OBSERVATIONS IN AND NEAR THE EASTERN PANHANDLE OF NEBRASKA...

CITY           SKY/WX    TMP DP  RH WIND       PRES   REMARKS
PINE RIDGE     CLEAR     41  18  39 SW3       29.98R
GORDON         FAIR      44  18  35 W7        29.98R
CHADRON        CLEAR     44  12  27 CALM      29.99R
ALLIANCE       CLEAR     40  17  39 W10       30.02R HAZE    WCI  33
SIDNEY         CLEAR     46  15  28 W14       30.08R
CRESCENT LAKE    N/A     45  15  29 W7          N/A
$$

...OBSERVATIONS IN NORTHERN NEBRASKA AND FAR SOUTHERN SOUTH DAKOTA...

CITY           SKY/WX    TMP DP  RH WIND       PRES   REMARKS
WINNER         FAIR      47  33  58 W9        29.93R
VALENTINE      CLEAR     46  29  51 W7        29.97R
THEDFORD       CLEAR     47  25  43 W7        29.99R
AINSWORTH      PTCLDY    46  32  57 W3        29.97R
O`NEILL        CLEAR     48  32  54 W6        29.95R
ORD            CLEAR     45  35  68 NW6       29.95R
BROKEN BOW     CLEAR     41  34  76 N3        29.97R
VALENTINE NWR    N/A     47  31  53 NW3         N/A
HALSEY           N/A     52  21  29 W7G14       N/A
BUTTE            N/A     47  33  59 W3          N/A
CHAMBERS         N/A     44  29  54 CALM        N/A
EWING            N/A     44  35  70 CALM        N/A
$$

...OBSERVATIONS IN SOUTHWEST NEBRASKA AND FAR NORTHEAST COLORADO...

CITY           SKY/WX    TMP DP  RH WIND       PRES   REMARKS
WRAY           FAIR      46  16  29 NW13      30.07R
HOLYOKE        FAIR      52  19  28 NW9       30.07R
IMPERIAL       CLEAR     50  19  29 NW9       30.04R
OGALLALA       CLEAR     41  24  50 CALM      30.04R
NORTH PLATTE   CLEAR     43  29  57 NW6       30.01R
MCCOOK         CLEAR     49  24  37 NW9       30.00R
LEXINGTON      CLEAR     44  33  66 NW8       29.98R
STAPLETON        N/A     44  23  43 CALM        N/A
GOTHENBURG       N/A     56  22  26 NW7         N/A
CALLAWAY         N/A     50  27  40 NW5         N/A
$$

...OBSERVATIONS IN CENTRAL LINCOLN COUNTY AREA...

CITY           SKY/WX    TMP DP  RH WIND       PRES   REMARKS
N.P. AIRPORT   CLEAR     43  29  57 NW6       30.01R
N.P. DOWNTOWN    N/A     49  26  41 CALM        N/A
N.P. SOUTHEAST   N/A     51  24  35 CALM        N/A
N.P. HILLCREST   N/A     51  22  32 NW7         N/A
$$

...SOME OBSERVATIONS FROM AROUND THE REGION...

CITY           SKY/WX    TMP DP  RH WIND       PRES   REMARKS
DENVER         PTCLDY    42  11  28 N6        30.12R
LIMON          CLEAR     40  11  30 N12       30.11R WCI  33
ASPEN          CLOUDY    32  24  72 VRB7      30.26R WCI  26
LARAMIE        CLEAR     28  13  53 W9        30.12R WCI  19
CASPER         CLEAR     37  10  32 W10       30.03R WCI  30
CHEYENNE       CLEAR     38  15  39 W12       30.10R WCI  30
SCOTTSBLUFF    CLEAR     47  21  35 W9        30.04R
GRAND ISLAND   CLEAR     46  39  76 NW3       29.96R
OMAHA          CLOUDY    55  42  61 NW9       29.90R
SIOUX FALLS    CLEAR     50  41  71 SW3       29.90R
PIERRE         MOCLDY    51  37  58 W8        29.89R
RAPID CITY     CLEAR     37  18  46 NW10      29.95R WCI  30
BISMARCK       CLOUDY    51  36  56 W15       29.78R
KANSAS CITY    TSTM      60  60 100 W10       29.85S VSB 1
HILL CITY      CLEAR     46  37  71 NE3       30.01R
WICHITA        LGT RAIN  59  53  80 N13       29.88R
DODGE CITY     CLEAR     49  32  52 N8        30.00R
OKLAHOMA CITY  TSTM      72  66  81 SE7       29.81R
DALLAS         PTCLDY    84  64  50 S14       29.81R
AMARILLO       PTCLDY    51  38  60 N8        30.00R
$$




USA.gov is the U.S. government's official web portal to all federal, state and local government web resources and services.